Regional Weather Roundup
Issued by NWS Albany, NY

Home | Current Version | Previous Version | Text Only | Print | Product List | Glossary On
Versions: 1 2 3 4 5 6 7 8 9 10 11 12 13 14 15 16 17 18 19 20 21 22 23 24 25 26 27 28 29 30 31 32 33 34 35 36 37 38 39 40 41 42 43 44 45 46 47 48 49 50
000
ASUS41 KALY 220610
RWRALY

NEW YORK STATE HOURLY WEATHER ROUNDUP
NATIONAL WEATHER SERVICE ALBANY NY
200 AM EDT TUE JUL 22 2014

NOTE: "FAIR" INDICATES FEW OR NO CLOUDS BELOW 12,000 FEET WITH NO
SIGNIFICANT WEATHER AND/OR NO OBSTRUCTIONS TO VISIBILITY.

NYZ032-033-038>043-046>054-057>066-NYZ062>081-220700-
EAST


CITY           SKY/WX    TMP DP  RH WIND       PRES   REMARKS
ALBANY         MOCLDY    71  64  78 S5        30.13F
GLENS FALLS    CLEAR     65  63  93 CALM      30.12F FOG
POUGHKEEPSIE   CLEAR     68  64  87 CALM      30.14S
MONTGOMERY     CLEAR     65  63  93 SW5       30.16S
WHITE PLAINS   CLEAR     66  62  87 CALM      30.17S
ISLIP          CLEAR     69  64  84 SW3       30.15F
NEW YORK CITY  CLEAR     74  60  61 SW7       30.16S
CENTRAL PARK   CLEAR     72  61  68 W7        30.19S
$$

NYZ005>009-017-018-044>046-055-056-220700-
CENTRAL


CITY           SKY/WX    TMP DP  RH WIND       PRES   REMARKS
FULTON         FOG       65  63  93 CALM      30.11F VSB 1/2
SYRACUSE       PTCLDY    71  66  84 CALM      30.11S
ROME           PTCLDY    70  65  84 E3        30.13F
ELMIRA         CLOUDY    72  70  93 W3        30.14F
BINGHAMTON     CLOUDY    69  64  84 SW5       30.18F
MONTICELLO     PTCLDY    63  63 100 CALM      30.21F
$$

NYZ026>034-041>043-220700-
NORTH


CITY           SKY/WX    TMP DP  RH WIND       PRES   REMARKS
WATERTOWN      CLEAR     62  57  83 CALM      30.10F HAZE
FORT DRUM      NOT AVBL
MASSENA        CLEAR     65  64  97 CALM      30.09F
SARANAC LAKE   FOG       53  53 100 CALM      30.16R VSB 1/4
PLATTSBURGH    CLEAR     64  63  96 CALM      30.09F
$$

NYZ001>004-010>016-019>021-220700-
WEST


CITY           SKY/WX    TMP DP  RH WIND       PRES   REMARKS
NIAGARA FALLS  CLEAR     67  64  90 CALM      30.12S
BUFFALO        CLEAR     65  60  84 S3        30.12F
DUNKIRK        CLEAR     60  55  83 CALM      30.13F
JAMESTOWN      CLEAR     63  61  94 S3        30.18F
WELLSVILLE     CLOUDY    72  65  78 S6        30.21F
ROCHESTER      PTCLDY    66  65  96 SW3       30.12F
PENN YAN       MOCLDY    69  68  96 SW6       30.14F FOG
$$

             KEY
       WCI = WIND CHILL INDEX
       VSB = VISIBILITY
       HX  = HEAT INDEX
$$


USA.gov is the U.S. government's official web portal to all federal, state and local government web resources and services.